2019-037A (44365 NORAD) Tracking and Keplerian Element Data

This shows tracking and keplerian element data for the satellite.

Feedback or suggestion? Click here.




ElementValue
Catalog44365
Name2019-037A
Epoch Orbit291
Epoch Day199.12936387
Epoch Year2019
RAAN184.4699
Inclination45.0094
Eccentricity0.0005419
Argument of Perigee33.3523
Mean Anonmoly326.7765
Mean Motion15.36652753
Decay Rate-3.32E-06
L11 44365U 19037A 19199.12936387 -.00000332 00000-0 00000+0 0 9998
L22 44365 45.0094 184.4699 0005419 33.3523 326.7765 15.36652753 2916

Live tracking and technical data element details for 2019-037A (NORAD 44365). 2019-037A can be tracked NOW for your location showing map with azimuth and elevation plus other details from your city location.

Track the satellite on the map from your city or location and see movement details for azimuth, elevation, latitude, longitude, range, height, and movement on the map or in text.







IsCatalogInMostPopularTable: catalog: 44365, numindb: 6
Update: records affected: 1



GetName: 44365 2019-037A

Hit Count: updated at: Fri, 19 Jul 2019 08:23:32 GMT